IRIDIUM 141 (43077 NORAD) Tracking and Keplerian Element Data

This shows tracking and keplerian element data for the satellite.

Feedback or suggestion? Click here.




ElementValue
Catalog43077
NameIRIDIUM 141
Epoch Orbit24925
Epoch Day269.27434776
Epoch Year2022
RAAN170.3688
Inclination86.4036
Eccentricity0.000192
Argument of Perigee88.1805
Mean Anonmoly271.9611
Mean Motion14.34217083
Decay Rate2.04E-06
L11 43077U 17083H 22269.27434776 .00000204 00000+0 65739-4 0 9990
L22 43077 86.4036 170.3688 0001920 88.1805 271.9611 14.34217083249257

Live tracking and technical data element details for IRIDIUM 141 (NORAD 43077). IRIDIUM 141 can be tracked NOW for your location showing map with azimuth and elevation plus other details from your city location.

Track the satellite on the map from your city or location and see movement details for azimuth, elevation, latitude, longitude, range, height, and movement on the map or in text.







IsCatalogInMostPopularTable: catalog: 43077, numindb: 643
Update: records affected: 1



GetName: 43077 IRIDIUM 141

Hit Count: updated at: Fri, 30 Sep 2022 02:21:49 GMT